Temp
11 11 11 11 11 11 11 10 10 10 9 8 7 6 6 6 6 6 6 6 6 5 5 5 5 5 4 4 3 3 2 3 3 3 3 3 3 3 2 3 4 4 4 4 5 5 6 6 6 6 7 7
10 10 11 10 10 10 10 10 10 10 10 9 9 8 6 6 7 7 6 6 6 5 5 5 5 5 4 3 3 2 2 2 3 3 3 3 3 3 3 4 5 4 4 4 5 5 5 5 6 6 6 6
11 10 10 10 10 10 10 10 10 10 10 10 9 9 8 8 8 7 7 6 6 6 5 5 5 5 4 3 3 2 1 2 3 3 3 3 3 3 4 4 4 4 4 4 5 5 5 5 5 6 6 6
11 10 10 10 10 10 10 10 10 10 10 10 9 9 9 8 8 8 7 7 6 6 6 6 6 5 4 4 3 2 1 1 2 3 3 3 3 4 4 4 4 4 4 4 5 5 5 5 5 5 6 6
10 10 10 10 10 10 10 10 10 10 9 9 9 9 9 9 8 8 7 7 7 6 6 6 6 5 4 4 3 2 1 1 1 2 3 3 3 4 4 4 4 4 4 4 4 5 5 5 5 5 5 5
10 10 10 10 10 10 10 10 9 9 9 9 9 9 9 9 9 8 8 7 7 7 7 7 6 5 5 4 3 3 2 1 0 1 2 2 3 4 4 3 3 3 3 4 4 4 4 4 4 4 4 4
10 10 10 10 10 10 10 9 9 9 9 9 9 9 9 9 9 8 8 7 7 7 7 7 6 5 5 4 4 3 2 1 0 0 1 2 3 4 3 3 2 3 3 3 3 3 3 4 4 4 4 4
10 10 10 10 10 10 10 9 9 9 9 9 9 9 9 8 8 8 8 7 7 7 7 7 6 6 5 5 4 3 3 2 1 1 1 2 3 4 3 2 2 2 2 3 3 3 3 3 3 3 4 4
10 10 10 10 10 10 9 9 9 9 9 9 9 9 8 8 8 8 8 7 7 7 7 7 6 6 5 5 5 4 4 3 3 3 2 2 3 3 2 2 2 2 2 2 2 3 3 3 3 3 3 4
11 10 10 10 10 10 10 9 9 9 9 9 9 9 8 8 8 8 8 7 7 7 7 7 6 6 6 5 5 4 4 4 3 3 2 2 2 2 2 2 2 2 2 2 2 2 2 2 2 3 3 3
11 10 10 10 10 10 10 9 9 9 9 9 9 8 8 8 8 8 8 7 7 7 7 7 6 6 6 5 5 4 4 3 3 2 2 2 2 2 2 2 2 2 2 2 2 2 2 2 2 2 3 3
11 11 11 10 10 10 10 10 9 9 9 9 9 8 8 8 8 8 8 7 7 7 7 7 6 6 6 5 5 4 4 3 3 2 2 2 2 2 2 2 1 1 1 1 1 1 1 1 1 2 2 3
11 11 11 10 10 10 10 10 10 10 9 9 9 8 8 8 8 8 8 7 7 7 7 6 6 6 6 5 5 4 4 3 3 2 2 2 2 1 1 1 1 1 1 1 1 1 1 1 1 1 2 2
11 11 11 11 11 11 10 10 10 10 9 9 9 9 8 8 8 8 8 7 7 7 7 6 6 6 6 5 5 4 4 3 3 2 2 2 2 1 1 1 1 1 1 1 1 1 1 1 1 1 1 2
11 11 11 11 11 11 11 11 10 10 10 10 9 9 9 8 8 8 7 7 7 7 6 6 6 6 5 5 5 5 4 3 3 2 2 2 1 1 1 1 1 1 1 1 1 1 1 1 1 1 1 2
10 11 11 11 11 11 11 10 10 10 10 10 10 9 9 8 8 8 7 7 7 7 7 6 6 6 5 5 5 5 4 3 3 2 2 2 1 1 1 1 1 1 1 1 1 1 1 1 1 1 1 1
9 9 10 10 10 10 10 10 10 10 10 10 10 9 9 9 8 8 8 7 7 7 7 6 6 6 5 5 5 5 4 3 3 2 2 2 1 1 1 1 1 1 1 1 1 0 1 1 1 1 1 1
7 8 8 8 9 9 9 9 10 10 10 10 9 9 9 9 9 8 8 8 7 7 7 6 6 6 5 5 5 4 4 3 3 2 2 2 1 1 1 1 1 1 1 0 0 0 0 0 0 0 0 1
5 5 6 6 7 7 8 8 9 9 9 9 9 9 9 9 9 8 8 8 8 7 7 7 6 6 6 5 5 4 4 3 3 2 2 1 1 1 1 1 1 1 1 0 0 0 0 0 0 0 0 0
4 4 4 5 5 6 6 7 7 7 8 8 8 8 8 9 8 8 8 8 7 7 7 7 6 6 6 5 5 4 4 3 3 2 2 1 1 1 1 1 1 1 1 0 0 0 0 0 0 0 0 0
3 3 3 4 4 4 4 5 5 5 6 6 6 7 7 7 7 7 7 7 7 7 7 7 6 6 6 5 5 4 4 3 3 2 2 1 1 1 1 1 1 1 0 0 0 -0 -0 -0 -0 -0 -0 -0
3 3 3 3 3 3 3 4 4 4 4 5 5 5 5 5 6 6 6 6 6 6 6 6 6 6 5 5 5 4 4 3 3 2 2 1 1 1 0 0 0 0 0 0 -0 -0 -0 -0 -0 -0 -1 -1
3 3 3 3 2 2 3 3 3 3 4 4 5 5 5 5 5 5 5 5 5 5 5 5 5 5 5 5 4 4 4 3 3 2 2 1 1 1 0 0 -0 -0 -0 -0 -0 -0 -0 -0 -0 -1 -1 -1
3 3 3 3 3 3 2 2 2 3 3 4 4 5 5 5 5 6 5 5 5 5 5 5 5 5 5 4 4 4 4 3 3 2 2 2 1 1 0 0 -0 -0 -0 -1 -1 -1 -1 -1 -1 -1 -1 -1
1 2 2 2 2 3 3 2 2 3 3 3 3 4 4 5 5 5 6 6 6 6 5 5 5 4 4 4 4 4 4 3 3 3 2 1 1 1 0 -0 -0 -1 -1 -1 -1 -1 -1 -1 -1 -1 -1 -1
1 1 1 1 1 2 2 2 2 2 2 2 2 3 3 3 4 4 5 6 6 6 6 5 5 4 4 4 4 4 4 3 3 2 2 1 1 0 0 -0 -1 -1 -1 -1 -2 -1 -1 -1 -1 -1 -1 -1
1 1 1 1 1 1 1 1 1 1 1 2 2 2 2 2 3 3 4 4 5 5 5 5 4 4 4 4 4 4 3 3 3 2 2 1 1 0 -0 -1 -1 -1 -1 -2 -2 -2 -2 -2 -1 -1 -1 -1
2 2 1 1 1 1 1 1 1 1 1 1 1 1 1 2 2 2 3 3 3 4 4 4 4 4 4 3 3 3 3 3 3 2 2 1 1 0 -0 -1 -1 -1 -1 -2 -2 -2 -3 -3 -3 -2 -1 -1
2 2 2 2 2 2 2 2 2 2 2 2 1 1 1 2 2 2 2 2 3 3 3 3 3 3 3 3 3 3 3 3 3 2 2 1 1 0 -0 -0 -1 -1 -1 -2 -2 -2 -3 -3 -3 -3 -1 -1
0 1 2 2 2 2 2 1 1 1 1 1 1 1 1 1 2 2 2 2 2 2 2 3 3 3 3 3 3 3 3 3 3 2 2 1 1 0 -0 -1 -1 -1 -2 -2 -2 -2 -2 -3 -3 -2 -2 -2
-1 -1 -0 0 1 1 1 1 1 1 1 1 1 1 1 1 1 1 1 1 1 2 2 2 2 2 2 2 2 2 2 2 2 2 2 1 1 0 -0 -1 -1 -1 -2 -2 -2 -2 -2 -2 -2 -3 -3 -3
Height
1496 1497 1498 1499 1500 1501 1501 1502 1503 1503 1504 1504 1505 1505 1506 1507 1507 1508 1508 1509 1509 1509 1509 1510 1510 1510 1511 1512 1512 1513 1513 1514 1514 1514 1515 1515 1516 1516 1516 1516 1516 1516 1515 1516 1516 1516 1517 1517 1518 1518 1519 1519
1495 1496 1497 1498 1499 1500 1500 1501 1502 1502 1503 1503 1504 1504 1505 1505 1506 1506 1507 1507 1508 1508 1508 1508 1509 1509 1510 1510 1511 1512 1512 1512 1513 1513 1514 1514 1514 1514 1514 1514 1515 1515 1515 1515 1515 1516 1516 1516 1516 1516 1517 1517
1493 1494 1495 1496 1497 1498 1499 1499 1500 1501 1502 1503 1503 1503 1504 1504 1505 1505 1506 1506 1507 1507 1507 1507 1508 1508 1509 1509 1510 1511 1511 1511 1512 1512 1512 1512 1513 1513 1513 1513 1514 1514 1514 1514 1514 1514 1515 1515 1515 1515 1515 1516
1492 1493 1494 1495 1496 1497 1498 1498 1499 1500 1501 1501 1502 1502 1503 1503 1504 1504 1505 1505 1506 1506 1506 1506 1507 1507 1508 1508 1509 1509 1510 1510 1510 1511 1511 1511 1511 1511 1512 1512 1513 1513 1513 1513 1513 1513 1514 1514 1514 1514 1514 1514
1491 1492 1492 1493 1494 1495 1496 1496 1497 1498 1499 1500 1500 1501 1501 1502 1502 1503 1503 1504 1504 1505 1505 1505 1505 1506 1506 1507 1507 1508 1509 1509 1509 1510 1510 1510 1510 1510 1511 1512 1512 1512 1512 1512 1512 1512 1512 1513 1513 1513 1513 1513
1489 1490 1491 1491 1492 1493 1494 1495 1495 1496 1497 1498 1499 1500 1500 1501 1501 1502 1502 1502 1503 1503 1503 1504 1504 1505 1505 1505 1506 1506 1507 1508 1508 1508 1508 1508 1508 1508 1509 1511 1511 1511 1510 1510 1511 1511 1511 1511 1511 1511 1511 1512
1487 1487 1488 1489 1490 1491 1492 1492 1493 1494 1495 1495 1497 1497 1498 1499 1499 1500 1500 1501 1501 1501 1502 1502 1503 1503 1503 1504 1504 1504 1505 1506 1506 1507 1507 1507 1506 1506 1508 1509 1509 1509 1509 1509 1509 1509 1509 1509 1509 1509 1509 1510
1484 1485 1485 1486 1487 1488 1489 1490 1491 1491 1492 1493 1494 1495 1496 1496 1497 1498 1498 1498 1499 1499 1500 1500 1501 1501 1501 1502 1502 1502 1503 1504 1504 1505 1505 1505 1504 1505 1507 1507 1507 1507 1507 1507 1507 1507 1507 1507 1507 1507 1508 1508
1480 1482 1483 1483 1484 1485 1486 1487 1488 1488 1489 1490 1491 1492 1493 1494 1495 1495 1496 1496 1496 1497 1497 1498 1498 1499 1499 1499 1500 1500 1501 1502 1502 1503 1503 1503 1503 1504 1505 1505 1506 1506 1506 1506 1506 1506 1506 1506 1506 1506 1506 1506
1477 1479 1479 1480 1481 1482 1483 1484 1484 1485 1486 1487 1488 1488 1490 1491 1492 1492 1493 1494 1494 1494 1495 1495 1496 1497 1497 1498 1498 1498 1499 1500 1500 1501 1501 1501 1502 1502 1503 1503 1504 1504 1504 1505 1505 1505 1504 1504 1504 1504 1504 1504
1474 1475 1476 1477 1478 1479 1479 1480 1481 1482 1482 1484 1484 1485 1486 1487 1489 1490 1490 1491 1492 1492 1493 1493 1494 1494 1495 1496 1496 1496 1497 1497 1498 1499 1499 1499 1500 1500 1501 1502 1502 1502 1503 1503 1503 1503 1503 1503 1503 1503 1503 1503
1471 1472 1473 1474 1474 1475 1476 1477 1477 1478 1479 1480 1481 1482 1483 1484 1485 1487 1487 1488 1489 1490 1490 1491 1491 1492 1493 1493 1494 1494 1494 1495 1496 1496 1497 1497 1498 1498 1499 1499 1500 1500 1501 1501 1501 1501 1501 1501 1500 1500 1500 1500
1468 1469 1469 1470 1470 1471 1472 1473 1473 1475 1475 1476 1477 1478 1479 1480 1482 1483 1484 1485 1486 1487 1488 1489 1489 1490 1490 1491 1491 1492 1492 1492 1493 1494 1494 1495 1496 1496 1497 1497 1498 1498 1498 1498 1498 1498 1498 1498 1498 1498 1498 1498
1465 1466 1465 1466 1467 1467 1468 1469 1470 1471 1471 1472 1473 1474 1475 1477 1478 1479 1481 1482 1483 1484 1485 1486 1486 1487 1487 1488 1488 1489 1489 1490 1490 1491 1492 1492 1493 1494 1494 1495 1495 1496 1496 1496 1496 1496 1496 1496 1496 1495 1495 1495
1462 1462 1461 1462 1463 1464 1464 1465 1466 1467 1467 1468 1469 1470 1472 1472 1474 1475 1477 1478 1479 1480 1481 1482 1483 1484 1484 1485 1485 1485 1486 1487 1487 1488 1489 1489 1490 1491 1492 1492 1493 1493 1493 1494 1494 1494 1494 1494 1493 1493 1493 1492
1458 1458 1458 1459 1459 1460 1461 1462 1462 1463 1463 1464 1466 1467 1468 1468 1470 1471 1472 1474 1475 1476 1477 1478 1479 1480 1480 1481 1481 1482 1482 1483 1484 1485 1485 1486 1487 1488 1488 1489 1490 1490 1491 1491 1491 1491 1491 1491 1491 1490 1490 1490
1454 1455 1455 1456 1456 1456 1457 1458 1458 1459 1460 1461 1462 1463 1463 1465 1466 1466 1468 1469 1470 1471 1472 1473 1474 1475 1476 1477 1478 1478 1478 1479 1480 1481 1481 1482 1483 1484 1485 1486 1487 1487 1488 1488 1488 1488 1488 1488 1488 1487 1487 1487
1449 1450 1451 1452 1452 1453 1453 1454 1454 1455 1456 1457 1458 1459 1459 1460 1461 1462 1463 1464 1465 1466 1467 1468 1469 1470 1471 1473 1474 1474 1474 1475 1476 1477 1477 1478 1479 1481 1482 1483 1483 1484 1485 1485 1485 1485 1485 1485 1484 1484 1484 1484
1444 1445 1445 1446 1447 1448 1449 1449 1450 1451 1452 1453 1454 1454 1455 1455 1456 1457 1458 1459 1460 1461 1462 1463 1463 1465 1467 1468 1469 1470 1470 1471 1472 1473 1474 1475 1476 1477 1478 1479 1480 1481 1481 1482 1482 1482 1482 1481 1481 1481 1481 1481
1439 1440 1440 1441 1442 1443 1444 1445 1445 1446 1447 1448 1449 1449 1450 1450 1452 1452 1453 1454 1455 1456 1457 1458 1459 1460 1463 1464 1465 1466 1466 1467 1467 1469 1470 1471 1472 1473 1474 1475 1476 1477 1478 1478 1478 1478 1478 1478 1478 1479 1479 1478
1436 1436 1437 1437 1438 1438 1439 1440 1440 1442 1442 1443 1444 1444 1445 1446 1447 1448 1449 1450 1451 1452 1453 1453 1455 1456 1458 1460 1461 1461 1462 1462 1463 1465 1466 1467 1468 1469 1470 1471 1472 1473 1474 1475 1475 1475 1475 1475 1475 1476 1476 1475
1433 1433 1433 1433 1434 1434 1435 1436 1436 1437 1437 1438 1438 1439 1440 1441 1442 1444 1445 1446 1447 1448 1449 1450 1451 1452 1454 1456 1457 1457 1457 1458 1459 1461 1462 1463 1464 1465 1466 1467 1469 1470 1471 1471 1471 1471 1472 1472 1472 1473 1473 1472
1433 1431 1431 1430 1430 1431 1431 1431 1432 1432 1432 1433 1433 1434 1435 1436 1437 1438 1439 1441 1442 1443 1444 1445 1446 1448 1449 1451 1452 1452 1453 1454 1455 1456 1458 1459 1460 1461 1462 1463 1465 1467 1467 1467 1468 1468 1469 1469 1469 1469 1469 1469
1431 1430 1429 1429 1428 1428 1428 1428 1428 1428 1428 1429 1429 1429 1430 1430 1431 1432 1433 1434 1436 1437 1439 1440 1442 1443 1445 1447 1448 1448 1448 1449 1450 1452 1453 1455 1456 1457 1458 1459 1461 1463 1463 1464 1464 1465 1466 1466 1466 1466 1465 1465
1431 1429 1428 1427 1426 1425 1425 1424 1424 1424 1424 1424 1425 1425 1425 1425 1426 1427 1428 1429 1430 1431 1432 1434 1435 1437 1439 1441 1442 1443 1444 1445 1446 1448 1449 1451 1452 1453 1454 1455 1456 1459 1460 1461 1461 1462 1462 1462 1462 1462 1461 1462
1435 1433 1431 1429 1427 1425 1424 1423 1422 1421 1421 1421 1421 1421 1421 1421 1421 1422 1423 1424 1424 1425 1426 1427 1428 1430 1432 1434 1436 1437 1439 1440 1441 1443 1445 1446 1447 1449 1450 1451 1452 1455 1456 1456 1457 1458 1459 1459 1458 1458 1457 1458
1438 1436 1434 1432 1429 1426 1424 1423 1421 1420 1419 1418 1417 1417 1417 1416 1417 1417 1418 1419 1420 1420 1422 1423 1423 1425 1426 1428 1430 1432 1433 1435 1436 1437 1439 1441 1442 1444 1445 1446 1447 1449 1451 1452 1454 1456 1456 1455 1455 1454 1454 1454
1437 1435 1433 1431 1428 1426 1424 1422 1420 1419 1418 1417 1416 1414 1413 1413 1413 1413 1413 1414 1415 1415 1417 1418 1419 1420 1422 1423 1425 1427 1428 1429 1430 1432 1433 1435 1437 1438 1440 1440 1442 1444 1446 1447 1450 1453 1452 1451 1452 1451 1450 1450
1433 1432 1430 1427 1425 1423 1421 1420 1418 1417 1416 1415 1413 1412 1411 1410 1410 1410 1410 1410 1410 1411 1412 1413 1414 1416 1417 1419 1420 1422 1423 1424 1425 1427 1428 1430 1431 1432 1433 1435 1437 1439 1441 1442 1445 1448 1447 1448 1448 1447 1447 1448
1431 1429 1427 1425 1423 1421 1418 1417 1416 1415 1414 1412 1411 1410 1408 1408 1408 1407 1407 1407 1407 1407 1407 1408 1410 1411 1412 1414 1416 1417 1418 1419 1420 1421 1423 1425 1426 1427 1429 1431 1432 1433 1435 1438 1440 1441 1442 1442 1443 1443 1445 1446
1430 1428 1426 1424 1422 1421 1419 1417 1416 1415 1414 1411 1410 1409 1408 1407 1406 1405 1404 1404 1404 1404 1404 1405 1406 1407 1408 1409 1411 1412 1414 1414 1415 1417 1419 1420 1421 1423 1425 1426 1426 1427 1430 1432 1433 1435 1437 1438 1439 1440 1441 1442
Wind_Speed
15 14 13 13 13 12 11 11 11 11 11 12 12 12 12 12 11 10 9 8 8 7 7 7 6 7 7 8 9 9 9 9 10 11 11 11 11 11 9 11 13 12 13 15 16 16 16 15 13 12 11 10
16 15 14 14 14 13 12 11 11 11 11 11 11 11 11 11 11 10 10 9 9 8 8 8 7 7 8 8 9 9 10 9 11 12 12 13 13 13 13 15 15 14 16 17 17 17 16 15 14 13 12 10
16 16 16 15 15 14 14 13 12 12 12 12 12 12 11 12 11 11 11 10 10 9 9 9 8 8 8 9 9 10 10 10 11 13 13 14 15 16 17 16 15 15 17 18 18 17 16 15 15 14 13 12
17 16 17 16 16 16 15 15 14 13 13 13 12 12 12 12 12 12 11 11 11 11 10 10 9 9 9 10 10 10 10 10 11 12 14 15 16 18 17 15 15 17 18 18 18 17 16 16 15 15 14 13
18 18 18 18 18 18 17 17 16 15 15 15 14 13 13 12 12 12 12 12 11 11 11 10 9 9 10 11 11 11 11 11 11 12 15 17 18 19 16 15 15 17 18 18 17 16 16 16 15 15 14 13
20 20 20 20 20 20 19 19 18 17 17 17 16 15 14 13 12 12 12 13 12 12 12 11 10 10 12 12 12 13 12 12 12 12 14 18 20 20 15 14 15 17 17 17 16 16 16 15 15 14 14 13
22 22 22 22 22 22 22 21 20 19 19 19 18 17 16 15 14 13 14 14 14 13 13 13 12 12 13 13 14 15 14 13 13 12 14 18 21 19 14 14 16 16 17 17 16 16 16 15 15 15 14 14
25 25 25 24 24 24 24 23 23 22 21 21 20 19 18 17 16 15 15 15 16 15 15 15 14 14 15 15 16 16 17 16 14 13 16 19 20 17 14 15 16 17 17 17 17 16 16 16 16 16 15 15
28 28 27 27 27 26 26 26 25 25 24 23 22 22 21 20 19 18 18 18 18 17 17 17 16 16 17 17 18 18 19 18 16 17 19 21 20 18 17 17 17 17 17 17 17 17 17 17 17 17 16 16
30 30 29 29 29 28 28 28 27 27 27 26 25 25 24 23 22 21 21 21 20 19 19 18 18 17 18 18 19 19 20 19 19 20 22 22 21 20 19 18 18 18 18 18 17 17 17 17 17 17 17 17
33 32 31 31 31 31 30 30 29 29 29 28 28 28 27 26 25 24 23 23 22 21 21 20 19 19 19 19 20 20 21 21 21 22 23 23 23 21 20 20 19 19 18 18 18 17 17 17 17 17 17 17
35 34 34 34 33 33 32 32 31 31 31 31 31 30 30 29 28 27 26 25 25 24 23 21 21 21 20 21 21 21 22 22 22 23 24 24 24 23 22 21 20 20 19 19 18 18 18 18 18 18 18 17
36 35 36 36 36 35 34 34 33 32 33 33 33 33 33 32 31 30 29 28 27 26 25 24 23 22 22 22 22 23 23 23 23 24 25 25 25 24 23 22 21 21 20 20 19 19 19 19 18 18 18 17
36 36 38 38 38 37 37 36 34 34 35 34 35 35 35 35 34 33 32 30 28 28 27 26 25 24 24 24 24 24 24 24 24 24 25 26 26 25 24 23 22 22 21 20 20 20 20 19 19 19 18 17
36 37 38 38 38 39 39 37 37 37 36 36 36 36 36 37 37 36 35 33 31 30 29 28 27 26 25 25 25 25 26 25 25 25 26 27 27 26 25 24 24 23 22 21 21 21 20 20 19 19 19 18
37 38 38 38 39 40 40 40 40 40 39 38 37 37 38 38 38 38 38 36 35 33 32 31 29 28 27 26 26 26 27 27 26 27 27 28 28 28 27 26 25 24 23 22 21 21 21 20 20 20 19 19
39 40 40 41 41 41 41 42 43 42 41 40 39 39 39 39 40 40 40 39 38 36 35 33 32 31 29 27 27 27 28 28 28 28 29 29 29 29 28 27 26 25 24 23 22 22 21 21 20 20 20 20
35 38 39 41 42 42 43 44 44 44 43 43 42 42 41 41 41 41 41 41 41 40 38 36 35 33 31 28 28 29 29 30 30 30 30 30 30 30 29 28 27 26 25 23 23 22 22 22 21 21 21 20
29 32 35 37 39 41 42 42 43 44 44 44 44 44 43 43 43 42 42 42 42 42 41 40 38 36 33 30 29 30 30 31 31 31 32 32 31 31 30 29 28 27 26 24 23 23 23 23 22 22 21 21
23 26 28 31 33 36 38 39 41 42 43 43 44 45 45 44 43 43 43 43 43 43 43 43 42 39 35 32 31 30 31 32 33 32 32 33 33 32 31 30 30 28 26 25 24 24 24 23 23 23 22 22
16 19 22 25 27 30 33 35 37 39 40 42 43 44 44 44 44 44 43 43 43 43 43 43 43 41 37 34 32 32 32 33 33 33 33 33 34 33 32 31 31 29 27 26 26 25 25 24 24 24 23 23
12 14 16 18 21 23 26 29 32 34 36 38 39 40 41 42 42 42 42 42 42 42 42 43 43 43 40 36 34 33 34 34 34 33 33 34 34 35 34 33 32 30 28 28 27 27 26 25 25 25 25 25
14 11 10 11 14 16 18 21 24 26 29 31 32 34 34 35 36 36 37 37 38 39 40 41 42 43 42 39 37 35 35 35 35 35 35 35 36 36 36 35 33 31 30 30 29 28 27 26 26 26 26 26
23 18 14 11 10 11 13 15 17 19 21 22 24 25 26 27 28 28 29 30 31 32 34 36 39 41 42 41 39 38 37 37 36 35 35 35 36 37 37 36 35 33 32 31 30 29 28 27 27 27 28 28
31 29 25 21 17 14 12 12 14 15 16 17 18 19 20 21 22 22 23 23 23 25 27 30 33 36 39 40 40 39 38 37 36 35 35 35 36 37 38 38 36 34 33 32 31 30 29 29 28 29 29 28
33 32 30 28 25 22 17 14 14 13 13 14 15 16 17 18 19 20 21 21 21 22 23 26 29 32 34 36 38 38 38 37 37 36 36 36 36 37 38 38 37 35 34 33 33 31 29 28 28 29 29 28
32 32 30 29 28 25 21 19 18 17 15 14 14 14 15 15 16 17 19 20 21 22 24 26 28 30 32 34 36 37 38 38 38 37 37 37 37 38 38 39 38 37 36 35 33 29 27 26 25 25 26 26
31 32 31 30 28 27 24 22 21 19 17 17 17 16 14 14 15 16 17 17 19 21 22 24 27 29 30 32 34 35 36 37 37 36 36 37 37 38 39 40 40 38 37 37 33 27 23 22 19 19 20 20
32 33 33 33 32 30 28 26 26 24 21 21 22 20 17 15 14 15 16 16 17 19 20 22 24 27 29 31 33 35 36 35 34 34 35 35 36 38 40 40 40 39 38 37 35 30 25 19 15 15 18 16
33 33 33 35 35 34 33 33 31 30 29 28 27 25 22 19 16 15 15 16 16 17 18 20 21 24 27 30 32 35 36 36 35 35 34 34 36 38 39 39 40 41 39 37 35 35 33 28 23 20 19 16
35 34 33 33 32 32 33 33 32 31 31 31 30 29 27 23 19 17 15 14 15 16 17 18 19 22 24 27 30 33 36 39 39 37 35 34 35 37 38 39 42 42 39 38 37 35 35 34 32 29 26 23
Wind_Direction
204 205 205 203 206 207 208 207 206 204 203 202 196 197 196 197 202 203 205 205 208 209 208 209 213 223 220 219 218 209 210 218 229 237 237 235 234 227 216 237 261 278 281 279 280 282 286 288 286 281 279 276
209 209 210 209 210 210 210 212 215 216 215 213 208 206 202 202 206 206 209 209 213 214 211 214 218 227 224 217 213 206 206 219 239 245 243 244 246 243 248 263 274 279 277 277 279 282 284 285 284 282 280 278
216 215 215 215 216 215 214 215 219 223 224 224 220 217 212 211 212 210 212 212 215 219 220 223 223 227 227 220 216 209 205 217 240 248 250 254 257 259 266 275 278 277 276 278 280 282 283 282 281 281 280 279
223 222 222 220 222 222 220 219 220 226 231 232 229 227 223 218 217 215 215 216 218 221 225 228 225 227 230 228 222 218 212 212 228 245 254 258 260 264 270 276 277 275 275 276 278 278 277 275 273 272 271 271
228 228 228 226 226 226 226 225 222 226 232 236 235 234 232 227 224 220 218 220 221 223 228 230 225 226 231 232 228 224 218 213 218 236 250 256 260 264 268 271 270 269 270 272 273 273 271 268 266 265 264 265
230 231 232 231 230 229 230 230 227 227 232 238 239 240 239 236 232 226 223 224 225 225 230 231 224 226 233 235 235 232 225 218 215 225 242 253 259 265 268 267 266 265 268 271 272 272 271 269 269 268 268 268
232 233 235 234 233 233 233 233 232 230 233 237 240 242 242 241 237 232 228 228 229 228 232 233 227 228 235 237 238 238 234 224 214 218 235 248 258 269 275 269 267 268 271 274 275 276 276 276 276 275 275 275
235 235 235 237 235 235 236 236 235 234 234 236 240 242 243 242 239 236 232 230 232 231 234 236 232 231 235 239 240 241 239 234 228 230 240 249 262 276 279 271 270 272 274 277 278 280 280 280 280 279 279 279
239 238 237 240 239 237 238 238 237 237 237 237 239 242 243 242 240 239 235 233 234 234 236 237 236 235 236 240 242 245 246 246 249 252 254 257 267 275 273 270 271 272 273 276 277 279 280 280 280 279 280 280
242 240 240 243 242 240 240 240 240 240 240 240 241 243 243 242 241 241 239 237 238 238 239 239 240 240 239 241 243 247 249 252 255 257 258 260 264 266 266 268 268 269 271 272 274 275 277 277 277 278 279 279
244 243 244 245 244 243 244 243 244 244 244 244 244 244 244 244 243 243 243 242 242 243 243 243 245 245 242 243 244 246 249 252 253 254 256 258 260 262 263 265 265 267 269 270 272 273 274 274 275 276 276 277
248 247 246 246 245 246 246 245 246 248 248 247 247 247 247 246 246 246 246 245 245 246 246 246 247 247 246 245 245 246 248 250 251 252 254 256 258 259 260 262 263 265 267 269 271 272 273 274 274 274 275 276
251 251 250 248 248 248 248 248 250 251 249 249 249 249 248 248 248 248 248 248 248 248 248 248 248 248 248 248 247 246 247 248 250 251 253 255 256 257 258 259 261 262 265 267 269 271 272 273 273 274 275 276
255 254 253 252 251 251 250 251 253 252 251 251 251 251 251 250 251 251 251 251 250 250 250 250 249 249 249 249 248 247 247 248 249 250 252 253 254 255 256 256 258 259 262 264 267 269 270 271 273 274 275 276
258 256 257 255 254 253 252 253 253 253 253 253 253 254 254 253 253 252 252 252 251 251 251 250 250 249 249 249 250 249 248 247 247 249 250 252 252 253 253 253 254 255 258 260 264 267 268 271 272 273 274 275
262 260 260 258 257 255 254 254 253 254 254 254 256 256 255 255 255 254 253 253 252 252 251 251 251 250 249 249 250 250 248 247 246 247 248 249 249 250 250 251 252 253 256 258 261 264 267 269 270 272 273 274
270 267 264 261 259 258 257 254 253 254 255 256 257 256 257 256 256 255 255 255 254 253 252 253 252 250 250 250 250 249 248 245 244 244 246 247 248 248 249 250 252 253 255 257 259 262 265 267 269 271 273 274
281 276 272 267 264 262 260 258 256 257 256 257 257 257 258 258 257 257 257 256 255 254 253 253 252 251 251 250 249 248 247 245 243 243 244 246 247 248 249 250 251 251 253 255 258 260 263 265 268 270 272 272
289 284 281 277 273 269 266 264 262 261 260 259 259 259 259 258 258 257 257 257 256 254 253 253 253 252 251 250 250 249 248 247 244 243 244 245 246 247 248 249 250 251 252 254 257 259 262 265 267 269 270 271
292 288 286 282 279 276 273 271 268 267 265 264 262 261 260 260 260 259 258 257 256 255 254 253 253 253 252 251 250 250 250 248 246 244 245 246 247 248 249 250 251 251 253 254 256 259 261 263 266 268 270 271
297 290 287 284 282 279 277 275 272 271 269 268 266 264 263 263 262 261 259 258 257 255 254 254 254 253 252 251 251 252 251 250 249 247 246 247 248 249 249 250 251 252 253 255 256 258 260 263 265 267 269 271
317 300 292 288 286 284 282 280 278 276 274 272 270 268 267 266 265 264 263 261 260 258 256 255 253 252 252 251 252 252 253 253 251 248 247 248 249 250 250 250 252 253 254 255 255 256 259 262 265 267 268 269
1 340 320 304 296 291 289 288 287 284 282 280 278 275 272 271 269 267 266 265 263 261 259 257 254 253 251 251 251 252 253 252 251 249 248 248 250 250 251 251 252 253 253 253 254 256 258 261 263 265 266 267
17 10 2 350 332 312 302 297 292 289 288 286 284 282 278 275 273 272 271 269 268 266 263 260 257 255 254 252 251 252 253 253 254 254 253 252 252 252 252 252 251 251 252 254 255 256 257 258 260 262 264 266
15 12 8 5 359 349 336 321 307 299 294 290 286 285 281 279 277 276 275 274 272 270 266 262 258 255 253 252 251 253 255 258 259 258 256 254 253 253 253 253 252 252 253 254 255 256 256 257 259 261 263 265
8 9 7 5 3 0 358 354 342 330 319 308 299 294 288 285 283 280 277 275 271 266 263 261 257 253 251 250 250 252 255 257 257 256 254 252 251 251 252 252 252 251 251 252 253 255 258 259 259 260 262 264
356 358 358 359 360 359 0 4 1 355 347 332 318 311 304 296 289 282 278 273 270 265 261 260 259 256 252 250 249 250 253 254 255 254 253 252 251 250 250 250 250 249 249 249 250 254 257 258 259 261 261 261
341 342 343 346 349 351 352 356 357 356 353 347 336 326 318 308 296 285 278 272 268 265 264 262 261 259 256 252 250 250 252 254 256 256 255 254 253 250 249 248 249 249 248 247 247 249 250 252 255 258 257 258
334 331 331 332 335 339 340 342 344 345 344 345 341 332 321 310 300 290 283 276 270 265 264 264 262 262 259 256 253 251 252 254 256 258 258 257 255 253 251 250 250 249 248 247 245 243 242 240 241 247 253 257
336 331 328 327 328 331 332 333 337 339 338 338 338 335 326 313 302 296 289 283 277 269 265 264 263 262 261 259 255 253 253 254 255 256 257 258 257 256 255 252 250 248 248 248 245 242 241 241 243 248 252 254
338 335 332 329 327 326 326 327 328 330 332 331 332 332 330 322 307 298 294 288 281 274 268 264 262 260 259 258 256 255 254 254 255 256 257 258 258 257 256 252 248 247 246 245 244 242 243 245 246 247 250 251